RSD202 UWKD-UUWW

Flight info

Callsign RSD202
Flight time 1h 6m
Altitude 38000
Route APTAR L158 DIMGI
Aircraft IL96/H-SDE2E3FGHIJ3J4J5M1RWXY/LB1D1

Departure

Time 2026-05-07 23:05
Airport Kazan International Airport (UWKD)

Arrival

Time 2026-05-08 00:11
Airport Vnukovo International Airport (UUWW)
Time Latitude Longitude Altitude Speed Heading
2026-05-07 22:34 55.60520 49.29895 424 ft 0 kts 303°
2026-05-07 22:52 55.60521 49.29893 413 ft 0 kts 303°
2026-05-07 22:52 55.60515 49.29886 412 ft 0 kts 303°
2026-05-07 22:52 55.60518 49.29889 413 ft 0 kts 303°
2026-05-07 22:53 55.60525 49.29881 415 ft 0 kts 303°
2026-05-07 22:56 55.60513 49.29910 412 ft 3 kts 305°
2026-05-07 22:56 55.60500 49.29945 412 ft 3 kts 300°
2026-05-07 22:56 55.60490 49.29981 412 ft 3 kts 284°
2026-05-07 22:57 55.60489 49.30015 414 ft 3 kts 265°
2026-05-07 22:57 55.60493 49.30047 412 ft 3 kts 237°
2026-05-07 22:57 55.60507 49.30071 412 ft 3 kts 211°
2026-05-07 22:57 55.60528 49.30091 412 ft 3 kts 209°
2026-05-07 22:58 55.60540 49.30103 412 ft 0 kts 214°
2026-05-07 23:00 55.60540 49.30104 424 ft 0 kts 214°
2026-05-07 23:01 55.60533 49.30096 424 ft 3 kts 214°
2026-05-07 23:01 55.60504 49.30060 420 ft 7 kts 214°
2026-05-07 23:01 55.60450 49.29995 418 ft 12 kts 214°
2026-05-07 23:02 55.60369 49.29906 421 ft 16 kts 203°
2026-05-07 23:02 55.60248 49.29902 418 ft 20 kts 162°
2026-05-07 23:02 55.60112 49.30012 413 ft 23 kts 154°
2026-05-07 23:02 55.59968 49.30126 415 ft 17 kts 174°
2026-05-07 23:03 55.59935 49.30120 418 ft 0 kts 197°
2026-05-07 23:03 55.59905 49.30099 416 ft 7 kts 203°
2026-05-07 23:03 55.59840 49.30027 421 ft 14 kts 213°
2026-05-07 23:04 55.59839 49.29894 422 ft 15 kts 308°
2026-05-07 23:04 55.59865 49.29832 415 ft 0 kts 305°
2026-05-07 23:04 55.59978 49.29547 416 ft 68 kts 304°
2026-05-07 23:04 55.60385 49.28495 418 ft 136 kts 304°
2026-05-07 23:05 55.61020 49.26851 619 ft 176 kts 304°
2026-05-07 23:05 55.61712 49.25001 1302 ft 182 kts 293°
2026-05-07 23:05 55.61781 49.22860 2059 ft 176 kts 246°
2026-05-07 23:05 55.61238 49.20880 2694 ft 186 kts 239°
2026-05-07 23:06 55.60605 49.18764 3189 ft 203 kts 241°
2026-05-07 23:06 55.59957 49.16428 3688 ft 220 kts 244°
2026-05-07 23:06 55.59294 49.13860 4156 ft 240 kts 245°
2026-05-07 23:06 55.58602 49.11031 4697 ft 260 kts 247°
2026-05-07 23:07 55.57888 49.08022 5471 ft 268 kts 248°
2026-05-07 23:07 55.57171 49.04960 6422 ft 271 kts 248°
2026-05-07 23:07 55.56448 49.01848 7265 ft 276 kts 249°
2026-05-07 23:07 55.55716 48.98685 8234 ft 279 kts 249°
2026-05-07 23:08 55.54977 48.95495 9309 ft 281 kts 249°
2026-05-07 23:08 55.54231 48.92272 10350 ft 285 kts 249°
2026-05-07 23:08 55.53461 48.88946 11112 ft 300 kts 249°
2026-05-07 23:08 55.52644 48.85417 11739 ft 319 kts 249°
2026-05-07 23:09 55.51796 48.81667 12335 ft 338 kts 253°
2026-05-07 23:09 55.51527 48.77487 12897 ft 352 kts 278°
2026-05-07 23:09 55.52048 48.73230 13865 ft 356 kts 286°
2026-05-07 23:09 55.52712 48.68994 14816 ft 360 kts 287°
2026-05-07 23:10 55.53372 48.64702 15749 ft 364 kts 285°
2026-05-07 23:10 55.54005 48.60326 16677 ft 369 kts 285°
2026-05-07 23:10 55.54617 48.55886 17613 ft 374 kts 284°
2026-05-07 23:10 55.55209 48.51446 18514 ft 378 kts 284°
2026-05-07 23:11 55.55805 48.46891 19302 ft 383 kts 284°
2026-05-07 23:11 55.56400 48.42281 20032 ft 387 kts 283°
2026-05-07 23:11 55.56995 48.37615 20727 ft 390 kts 283°
2026-05-07 23:11 55.57589 48.32915 21405 ft 394 kts 283°
2026-05-07 23:12 55.58187 48.28153 22085 ft 398 kts 283°
2026-05-07 23:12 55.58789 48.23344 22751 ft 402 kts 282°
2026-05-07 23:12 55.59395 48.18475 23402 ft 407 kts 282°
2026-05-07 23:12 55.60005 48.13556 23969 ft 411 kts 282°
2026-05-07 23:13 55.60619 48.08594 24531 ft 414 kts 282°
2026-05-07 23:13 55.61235 48.03589 25092 ft 418 kts 282°
2026-05-07 23:13 55.61854 47.98547 25647 ft 421 kts 282°
2026-05-07 23:13 55.62476 47.93456 26211 ft 424 kts 282°
2026-05-07 23:14 55.63102 47.88319 26751 ft 428 kts 282°
2026-05-07 23:14 55.63729 47.83154 27294 ft 431 kts 282°
2026-05-07 23:14 55.64361 47.77932 27856 ft 433 kts 282°
2026-05-07 23:14 55.64991 47.72703 28468 ft 435 kts 282°
2026-05-07 23:15 55.65623 47.67436 29003 ft 438 kts 282°
2026-05-07 23:15 55.66041 47.63933 29335 ft 440 kts 281°
2026-05-07 23:15 55.66678 47.58585 29812 ft 444 kts 281°
2026-05-07 23:15 55.67318 47.53200 30267 ft 448 kts 281°
2026-05-07 23:16 55.67958 47.47780 30758 ft 449 kts 281°
2026-05-07 23:16 55.68594 47.42376 31394 ft 446 kts 281°
2026-05-07 23:16 55.69224 47.37002 32058 ft 444 kts 281°
2026-05-07 23:16 55.69849 47.31649 32696 ft 441 kts 281°
2026-05-07 23:17 55.70468 47.26323 33312 ft 440 kts 281°
2026-05-07 23:17 55.71083 47.21011 33910 ft 438 kts 281°
2026-05-07 23:17 55.71694 47.15716 34424 ft 437 kts 281°
2026-05-07 23:17 55.72299 47.10450 34939 ft 434 kts 281°
2026-05-07 23:18 55.72900 47.05199 35428 ft 433 kts 281°
2026-05-07 23:18 55.73497 46.99958 35838 ft 433 kts 281°
2026-05-07 23:18 55.74093 46.94704 36223 ft 433 kts 281°
2026-05-07 23:18 55.74687 46.89448 36547 ft 435 kts 281°
2026-05-07 23:19 55.75282 46.84161 36837 ft 437 kts 281°
2026-05-07 23:19 55.75877 46.78851 37110 ft 439 kts 281°
2026-05-07 23:19 55.76472 46.73518 37373 ft 441 kts 281°
2026-05-07 23:19 55.77068 46.68161 37646 ft 442 kts 281°
2026-05-07 23:20 55.77661 46.62778 37879 ft 444 kts 281°
2026-05-07 23:20 55.78842 46.51945 37939 ft 447 kts 279°
2026-05-07 23:21 55.79604 46.40999 37933 ft 445 kts 274°
2026-05-07 23:21 55.79983 46.30004 37936 ft 445 kts 273°
2026-05-07 23:22 55.80336 46.19007 37922 ft 445 kts 273°
2026-05-07 23:22 55.80679 46.08016 37917 ft 445 kts 273°
2026-05-07 23:23 55.81013 45.97023 37925 ft 445 kts 273°
2026-05-07 23:23 55.81338 45.86020 37906 ft 445 kts 273°
2026-05-07 23:24 55.81653 45.75017 37923 ft 445 kts 273°
2026-05-07 23:24 55.81958 45.64038 37917 ft 444 kts 273°
2026-05-07 23:25 55.82253 45.53052 37896 ft 444 kts 272°
2026-05-07 23:25 55.82536 45.42139 37906 ft 444 kts 272°
2026-05-07 23:26 55.82811 45.31155 37890 ft 444 kts 272°
2026-05-07 23:26 55.83076 45.20166 37903 ft 444 kts 272°
2026-05-07 23:27 55.83454 45.03687 37893 ft 444 kts 272°
2026-05-07 23:27 55.83694 44.92722 37899 ft 441 kts 272°
2026-05-07 23:28 55.83935 44.81801 37897 ft 441 kts 272°
2026-05-07 23:28 55.84166 44.70886 37887 ft 441 kts 272°
2026-05-07 23:29 55.84385 44.59965 37885 ft 441 kts 272°
2026-05-07 23:29 55.84593 44.49057 37888 ft 441 kts 272°
2026-05-07 23:30 55.84792 44.38136 37882 ft 441 kts 272°
2026-05-07 23:30 55.84980 44.27224 37882 ft 441 kts 272°
2026-05-07 23:31 55.85161 44.16311 37889 ft 439 kts 272°
2026-05-07 23:31 55.85329 44.05416 37866 ft 440 kts 271°
2026-05-07 23:32 55.85488 43.94497 37867 ft 440 kts 271°
2026-05-07 23:32 55.85638 43.83584 37872 ft 440 kts 271°
2026-05-07 23:33 55.85778 43.72670 37866 ft 440 kts 271°
2026-05-07 23:33 55.85907 43.61757 37877 ft 440 kts 271°
2026-05-07 23:34 55.86027 43.50841 37878 ft 440 kts 271°
2026-05-07 23:34 55.86148 43.39934 37863 ft 440 kts 271°
2026-05-07 23:35 55.86259 43.29105 37867 ft 440 kts 271°
2026-05-07 23:35 55.86359 43.18197 37870 ft 440 kts 271°
2026-05-07 23:36 55.86450 43.07272 37864 ft 440 kts 271°
2026-05-07 23:36 55.86530 42.96357 37875 ft 440 kts 271°
2026-05-07 23:37 55.86601 42.85435 37874 ft 440 kts 271°
2026-05-07 23:37 55.86662 42.74512 37880 ft 440 kts 270°
2026-05-07 23:38 55.86713 42.63587 37862 ft 440 kts 270°
2026-05-07 23:38 55.86755 42.52664 37866 ft 440 kts 270°
2026-05-07 23:39 55.86787 42.41735 37849 ft 441 kts 270°
2026-05-07 23:39 55.86809 42.30795 37857 ft 441 kts 270°
2026-05-07 23:40 55.86821 42.19837 37862 ft 441 kts 270°
2026-05-07 23:40 55.86823 42.08890 37860 ft 441 kts 270°
2026-05-07 23:41 55.86816 41.97948 37859 ft 441 kts 270°
2026-05-07 23:41 55.86799 41.87014 37856 ft 441 kts 270°
2026-05-07 23:42 55.86707 41.76082 37865 ft 441 kts 267°
2026-05-07 23:42 55.86396 41.65173 37856 ft 441 kts 267°
2026-05-07 23:43 55.86067 41.54259 37849 ft 441 kts 267°
2026-05-07 23:43 55.85728 41.43346 37861 ft 441 kts 267°
2026-05-07 23:44 55.85383 41.32513 37855 ft 441 kts 266°
2026-05-07 23:44 55.85026 41.21599 37860 ft 441 kts 266°
2026-05-07 23:45 55.84660 41.10714 37870 ft 439 kts 266°
2026-05-07 23:45 55.84285 40.99865 37858 ft 438 kts 266°
2026-05-07 23:46 55.83901 40.89027 37617 ft 438 kts 266°
2026-05-07 23:46 55.83706 40.83632 37320 ft 435 kts 266°
2026-05-07 23:46 55.83509 40.78258 37040 ft 434 kts 266°
2026-05-07 23:47 55.83310 40.72911 36727 ft 431 kts 266°
2026-05-07 23:47 55.83109 40.67579 36375 ft 431 kts 266°
2026-05-07 23:47 55.82907 40.62251 35929 ft 431 kts 266°
2026-05-07 23:47 55.82699 40.56924 35383 ft 432 kts 266°
2026-05-07 23:48 55.82486 40.51584 34814 ft 432 kts 266°
2026-05-07 23:48 55.82269 40.46237 34233 ft 433 kts 266°
2026-05-07 23:48 55.82050 40.40879 33606 ft 434 kts 266°
2026-05-07 23:48 55.81829 40.35513 32985 ft 435 kts 266°
2026-05-07 23:49 55.81606 40.30145 32393 ft 434 kts 266°
2026-05-07 23:49 55.81381 40.24792 31800 ft 434 kts 266°
2026-05-07 23:49 55.81154 40.19434 31183 ft 434 kts 266°
2026-05-07 23:49 55.80923 40.14080 30576 ft 434 kts 266°
2026-05-07 23:50 55.80690 40.08712 29965 ft 435 kts 266°
2026-05-07 23:50 55.80457 40.03445 29477 ft 430 kts 266°
2026-05-07 23:50 55.80218 39.98095 29067 ft 425 kts 266°
2026-05-07 23:50 55.79986 39.92965 28672 ft 419 kts 266°
2026-05-07 23:51 55.79751 39.87811 28283 ft 415 kts 266°
2026-05-07 23:51 55.79518 39.82725 27892 ft 412 kts 266°
2026-05-07 23:51 55.79249 39.77598 27513 ft 417 kts 264°
2026-05-07 23:51 55.78915 39.72490 26991 ft 415 kts 264°
2026-05-07 23:52 55.78565 39.67395 26383 ft 414 kts 263°
2026-05-07 23:52 55.78217 39.62335 25871 ft 411 kts 263°
2026-05-07 23:52 55.77862 39.57316 25400 ft 407 kts 261°
2026-05-07 23:52 55.77141 39.52465 24911 ft 404 kts 252°
2026-05-07 23:53 55.76180 39.47800 24503 ft 399 kts 251°
2026-05-07 23:53 55.75197 39.43207 23997 ft 396 kts 251°
2026-05-07 23:53 55.74233 39.38649 23597 ft 392 kts 251°
2026-05-07 23:53 55.73290 39.34123 23196 ft 388 kts 251°
2026-05-07 23:54 55.72372 39.29662 22807 ft 382 kts 251°
2026-05-07 23:54 55.71468 39.25244 22408 ft 378 kts 251°
2026-05-07 23:54 55.70616 39.20860 21874 ft 375 kts 256°
2026-05-07 23:54 55.70120 39.16288 21036 ft 380 kts 262°
2026-05-07 23:55 55.69754 39.11584 20002 ft 389 kts 262°
2026-05-07 23:55 55.69389 39.06815 19288 ft 388 kts 262°
2026-05-07 23:55 55.69012 39.02110 18630 ft 382 kts 261°
2026-05-07 23:55 55.68628 38.97495 17502 ft 377 kts 261°
2026-05-07 23:56 55.68235 38.92938 16458 ft 370 kts 261°
2026-05-07 23:56 55.67843 38.88478 15461 ft 362 kts 260°
2026-05-07 23:56 55.67453 38.84096 14462 ft 357 kts 260°
2026-05-07 23:56 55.67063 38.79775 13889 ft 352 kts 260°
2026-05-07 23:57 55.66677 38.75518 13421 ft 348 kts 260°
2026-05-07 23:57 55.66292 38.71296 12944 ft 344 kts 260°
2026-05-07 23:57 55.65909 38.67130 12528 ft 340 kts 260°
2026-05-07 23:57 55.65529 38.63013 12096 ft 336 kts 259°
2026-05-07 23:58 55.65155 38.58949 11701 ft 332 kts 259°
2026-05-07 23:58 55.64781 38.54952 11358 ft 325 kts 259°
2026-05-07 23:58 55.64413 38.51033 11023 ft 320 kts 259°
2026-05-07 23:58 55.64049 38.47166 10657 ft 315 kts 259°
2026-05-07 23:59 55.63690 38.43358 10321 ft 310 kts 259°
2026-05-07 23:59 55.63338 38.39632 10112 ft 300 kts 259°
2026-05-07 23:59 55.63008 38.36132 10098 ft 284 kts 259°
2026-05-07 23:59 55.62689 38.32769 10059 ft 270 kts 259°
2026-05-08 00:00 55.62385 38.29577 10028 ft 256 kts 259°
2026-05-08 00:00 55.62095 38.26538 10004 ft 246 kts 259°
2026-05-08 00:00 55.61809 38.23553 9696 ft 247 kts 259°
2026-05-08 00:00 55.61521 38.20556 9350 ft 246 kts 259°
2026-05-08 00:01 55.61234 38.17575 9041 ft 245 kts 259°
2026-05-08 00:01 55.60942 38.14559 8722 ft 251 kts 259°
2026-05-08 00:01 55.60646 38.11504 8409 ft 252 kts 259°
2026-05-08 00:01 55.60350 38.08449 8088 ft 251 kts 259°
2026-05-08 00:02 55.60054 38.05406 7789 ft 250 kts 259°
2026-05-08 00:02 55.59759 38.02375 7483 ft 250 kts 258°
2026-05-08 00:02 55.59463 37.99352 7193 ft 249 kts 259°
2026-05-08 00:02 55.59167 37.96334 6877 ft 249 kts 258°
2026-05-08 00:03 55.58872 37.93317 6566 ft 248 kts 258°
2026-05-08 00:03 55.58675 37.91323 6363 ft 248 kts 258°
2026-05-08 00:03 55.58380 37.88331 6045 ft 247 kts 258°
2026-05-08 00:03 55.58082 37.85343 5760 ft 246 kts 259°
2026-05-08 00:04 55.57785 37.82364 5447 ft 245 kts 259°
2026-05-08 00:04 55.57490 37.79407 5159 ft 243 kts 259°
2026-05-08 00:04 55.57201 37.76472 4886 ft 241 kts 259°
2026-05-08 00:04 55.56908 37.73559 4592 ft 239 kts 259°
2026-05-08 00:05 55.56617 37.70666 4303 ft 238 kts 259°
2026-05-08 00:05 55.56327 37.67795 4022 ft 236 kts 259°
2026-05-08 00:05 55.56039 37.64935 3751 ft 235 kts 260°
2026-05-08 00:05 55.55752 37.62093 3468 ft 234 kts 260°
2026-05-08 00:06 55.55485 37.59280 3266 ft 228 kts 266°
2026-05-08 00:06 55.55771 37.56633 3213 ft 217 kts 297°
2026-05-08 00:06 55.56697 37.54621 3213 ft 206 kts 311°
2026-05-08 00:06 55.57682 37.52912 3226 ft 191 kts 311°
2026-05-08 00:07 55.58606 37.51312 3097 ft 181 kts 311°
2026-05-08 00:07 55.59620 37.50009 2949 ft 182 kts 328°
2026-05-08 00:07 55.60770 37.49132 2752 ft 177 kts 333°
2026-05-08 00:07 55.61886 37.48365 2493 ft 167 kts 333°
2026-05-08 00:08 55.62861 37.47475 2269 ft 156 kts 308°
2026-05-08 00:08 55.63221 37.45688 2219 ft 156 kts 270°
2026-05-08 00:08 55.63039 37.43860 2199 ft 148 kts 256°
2026-05-08 00:08 55.62736 37.42165 2177 ft 143 kts 253°
2026-05-08 00:09 55.62392 37.40508 2090 ft 143 kts 251°
2026-05-08 00:09 55.62021 37.38849 1881 ft 143 kts 251°
2026-05-08 00:09 55.61648 37.37210 1708 ft 143 kts 251°
2026-05-08 00:09 55.61282 37.35588 1481 ft 144 kts 251°
2026-05-08 00:10 55.60909 37.33914 1319 ft 148 kts 251°
2026-05-08 00:10 55.60532 37.32200 1121 ft 151 kts 249°
2026-05-08 00:10 55.60128 37.30488 928 ft 150 kts 250°
2026-05-08 00:10 55.59738 37.28766 732 ft 150 kts 250°
2026-05-08 00:11 55.59398 37.27223 696 ft 106 kts 248°
2026-05-08 00:11 55.59207 37.26374 692 ft 45 kts 248°
2026-05-08 00:11 55.59195 37.26148 696 ft 10 kts 19°
2026-05-08 00:11 55.59270 37.26231 697 ft 14 kts 23°
2026-05-08 00:12 55.59363 37.26306 696 ft 16 kts 25°
2026-05-08 00:12 55.59439 37.26411 696 ft 13 kts 56°
2026-05-08 00:12 55.59481 37.26566 693 ft 15 kts 66°
2026-05-08 00:12 55.59520 37.26741 695 ft 6 kts 70°
2026-05-08 00:13 55.59529 37.26830 703 ft 8 kts 104°
2026-05-08 00:13 55.59489 37.26933 696 ft 12 kts 120°
2026-05-08 00:13 55.59454 37.27081 697 ft 15 kts 110°
2026-05-08 00:13 55.59431 37.27273 693 ft 17 kts 84°
2026-05-08 00:14 55.59459 37.27497 697 ft 20 kts 69°
2026-05-08 00:14 55.59513 37.27748 698 ft 23 kts 69°
2026-05-08 00:14 55.59558 37.27959 699 ft 10 kts 77°
2026-05-08 00:14 55.59540 37.28052 696 ft 10 kts 138°
2026-05-08 00:15 55.59469 37.28123 696 ft 10 kts 148°
2026-05-08 00:15 55.59442 37.28226 703 ft 11 kts 85°
2026-05-08 00:15 55.59469 37.28374 696 ft 14 kts 69°
2026-05-08 00:15 55.59509 37.28553 694 ft 17 kts 69°
2026-05-08 00:16 55.59546 37.28724 697 ft 11 kts 71°
2026-05-08 00:16 55.59523 37.28860 696 ft 13 kts 102°
2026-05-08 00:16 55.59518 37.28957 697 ft 7 kts 122°
2026-05-08 00:16 55.59484 37.28998 695 ft 0 kts 156°
2026-05-08 00:17 55.59475 37.29004 695 ft 3 kts 157°
2026-05-08 00:17 55.59463 37.29013 695 ft 0 kts 157°